Location: Unspecified
(0.0000°N, 0.0000°E)
Time: 18:44:36
(UTC+00:00)

A-11 Canister half - Pass Details

Date: 10 August 2021
Orbit: 1526 x 1683 km, 47.3° (Epoch: 25 September)

Event Time Altitude Azimuth Distance (km) Brightness Sun altitude
Exits shadow 04:36:12 - 200° (SSW) 4,179 10.9 -21.5°
Reaches altitude 10° 04:37:31 10° 196° (SSW) 3,806 10.8 -21.1°
Maximum altitude 04:46:24 40° 130° (SE) 2,261 10.1 -19.0°
Drops below altitude 10° 04:55:29 10° 64° (ENE) 3,907 12.4 -16.8°
Sets 04:58:56 0° 57° (ENE) 4,907 13.1 -16.0°
